Flag for Poland Weather past 2 weeks in Olsztyn, Poland

Now
81 °F

Passing clouds.


Feels Like: 81 °F
Forecast: 64 / 85 °F
Wind: 5 mph from Southeast

Location: Ketrzyn

Current Time: Jul 25, 2014 at 11:52:48 AM

Latest Report: Jul 25, 2014 at 11:00 AM


Visibility: 17 mi

Pressure: 30.06 "Hg

Humidity: 43%

Dew point: 57 °F

Location of OlsztynLocation

Historic Weather in Olsztyn — Graph

°F

Olsztyn temperature yesterday

Maximum temperature yesterday: 80 °F (at 4:00 PM)
Minimum temperature yesterday: 55 °F (at 6:00 AM)
Average temperature yesterday: 71 °F

Past Weeks' High & Low Weather Summary

 TemperatureHumidityPressure
High83 °F (Jul 10, 4:00 PM)100% (Jul 12, 1:00 PM)30.21 "Hg (Jul 12, 1:00 PM)
Low53 °F (Jul 19, 3:00 AM)33% (Jul 24, 3:00 PM)29.74 "Hg (Jul 13, 10:00 AM)
Average68 °F70%30.01 "Hg
* Reported Jul 10 10:00 AM — Jul 25 10:00 AM, Olsztyn, Weather by CustomWeather, © 2014

Note: Actual official high and low records may vary slightly from our data, if they occured in-between our weather recording intervals... More about our weather records

Advertising

Olsztyn weather history for previous 24 hours

 ConditionsComfort  
Time TempWeatherWind HumidityBarometerVisibility
10:00 AM
Jul 25
80 °FPassing clouds.5 mph46%30.07 "Hg19 mi
9:00 AM76 °FPassing clouds.3 mph53%30.07 "Hg17 mi
8:00 AM72 °FPassing clouds.3 mph61%30.07 "Hg16 mi
7:00 AM66 °FPassing clouds.1 mph82%30.06 "Hg14 mi
6:00 AM59 °FSunny.No wind88%30.07 "Hg12 mi
5:00 AM57 °FPassing clouds.1 mph87%30.07 "Hg9 mi
4:00 AM57 °FPassing clouds.1 mph85%30.06 "Hg10 mi
3:00 AM59 °FPassing clouds.1 mph82%30.06 "Hg14 mi
2:00 AM60 °FClear.2 mph80%30.06 "Hg15 mi
1:00 AM63 °FClear.1 mph75%30.07 "Hg17 mi
12:00 AM66 °FPassing clouds.2 mph65%30.06 "Hg22 mi
11:00 PM
Jul 24
67 °FPassing clouds.1 mph61%30.05 "Hg22 mi
10:00 PM70 °FPassing clouds.2 mph53%30.04 "Hg25 mi
9:00 PM73 °FPassing clouds.2 mph47%30.03 "Hg12 mi
8:00 PM76 °FOvercast.2 mph42%30.02 "Hg22 mi
7:00 PM79 °FPartly sunny.3 mph37%30.02 "Hg19 mi
6:00 PM80 °FPartly sunny.5 mph33%30.01 "Hg19 mi
5:00 PM80 °FPartly sunny.5 mph33%30.02 "Hg17 mi
4:00 PM80 °FPartly sunny.6 mph34%30.03 "Hg22 mi
3:00 PM80 °FScattered clouds.6 mph33%30.04 "Hg19 mi
2:00 PM80 °FScattered clouds.6 mph35%30.05 "Hg22 mi
1:00 PM79 °FScattered clouds.7 mph34%30.06 "Hg22 mi
12:00 PM78 °FScattered clouds.6 mph35%30.06 "Hg19 mi
11:00 AM77 °FScattered clouds.7 mph37%30.06 "Hg19 mi
Weather by CustomWeather, © 2014

See weather overviewHow to use our weather pages